Regional Weather Roundup
Issued by NWS

Home | Current Version | Previous Version | Graphics & Text | Print | Product List | Glossary On
Versions: 1 2 3 4 5 6 7 8 9 10 11 12 13 14 15 16 17 18 19 20 21 22 23 24 25 26 27 28 29 30 31 32 33 34 35 36 37 38 39 40 41 42 43 44 45 46 47 48 49 50
000
ASUS43 KLSX 280807
RWRMO

WEATHER SUMMARY FOR MISSOURI
NATIONAL WEATHER SERVICE SPRINGFIELD MO
200 AM CST FRI NOV 28 2014

NOTE: "FAIR" INDICATES FEW OR NO CLOUDS BELOW 12,000 FEET WITH NO
       SIGNIFICANT WEATHER AND/OR OBSTRUCTIONS TO VISIBILITY.
       CURRENT SKY AND/OR WEATHER CONDITIONS ARE NOT AVAILABLE FOR
       CHILLICOTHE AND FARMINGTON.

MOZ001>031-035>038-043-044-053-054-280900-
...NORTHERN AND WESTERN MISSOURI...

CITY           SKY/WX    TMP DP  RH WIND       PRES   REMARKS
KANSAS CTY INT CLEAR     32  22  66 S15       30.15F WCI  22
KANSAS C DTWN  CLEAR     34  22  61 S9        30.18F WCI  27
LEE`S SUMMIT   CLEAR     31  22  69 S13       30.19F WCI  21
ST JOSEPH      CLEAR     30  23  75 S14       30.14F WCI  19
CHILLICOTHE      N/A     29  23  78 SE7       30.24F WCI  22
KIRKSVILLE     CLEAR     20  16  84 SE10      30.26F WCI   9

$$
MOZ066>068-077>081-088>096-101>105-280900-
...SOUTHWEST MISSOURI...

CITY           SKY/WX    TMP DP  RH WIND       PRES   REMARKS
SPRINGFIELD    CLEAR     33  23  66 S14       30.27S WCI  23
JOPLIN         CLEAR     34  23  64 SE7       30.25F WCI  28

$$
MOZ032>034-039>042-045>050-055>058-069>072-280900-
...CENTRAL MISSOURI...

CITY           SKY/WX    TMP DP  RH WIND       PRES   REMARKS
COLUMBIA       CLEAR     28  24  85 SE8       30.28F WCI  20
JEFFERSON CITY CLEAR     30  24  78 SE6       30.31F WCI  24
ROLLA          CLEAR     29  21  72 SE12      30.29S WCI  19
SEDALIA        CLEAR     30  23  75 SE10      30.25F WCI  21
WHITEMAN AFB   CLEAR     31  23  73 S9        30.23F WCI  22
WARRENSBURG    CLEAR     30  23  74 SE7       30.22F WCI  23
OSAGE BEACH    CLEAR     30  21  69 SE6       30.28F WCI  24

$$
MOZ051-052-059>065-280900-
...EAST CENTRAL MISSOURI...

CITY           SKY/WX    TMP DP  RH WIND       PRES   REMARKS
ST LOUIS INTL  MOCLDY    26  19  74 E10       30.38F WCI  16
SPIRIT OF STL  CLOUDY    27  20  75 SE5       30.37F WCI  22
ST CHARLES     MOCLDY    24  20  84 SE12      30.39F WCI  13

$$
MOZ072>076-082>087-097>100-106>115-280900-
...SOUTH CENTRAL AND SOUTHEAST MISSOURI...

CITY           SKY/WX    TMP DP  RH WIND       PRES   REMARKS
CAPE GIRARDEAU MOCLDY    30  27  88 CALM      30.42S
FARMINGTON     PTCLDY    28  25  86 SE6       30.36F WCI  22
POPLAR BLUFF   CLEAR     27  24  89 E3        30.40F FOG
WEST PLAINS    CLEAR     31  21  66 SE5       30.33F WCI  26

$$


USA.gov is the U.S. government's official web portal to all federal, state and local government web resources and services.